Weather reports worldwide

Advertisment
Valley, United Kingdom (3302): temperature & dewpoint: 10.11.2018 10:00:00 - 16.11.2018 10:00:00 (GMT)Valley, United Kingdom (3302): temperature -20cm & temperature -100cm: 10.11.2018 10:00:00 - 16.11.2018 10:00:00 (GMT)Valley, United Kingdom (3302): wind speed & gusts: 10.11.2018 10:00:00 - 16.11.2018 10:00:00 (GMT)Valley, United Kingdom (3302): wind direction: 10.11.2018 10:00:00 - 16.11.2018 10:00:00 (GMT)Valley, United Kingdom (3302): reduced air pressure: 10.11.2018 10:00:00 - 16.11.2018 10:00:00 (GMT)Valley, United Kingdom (3302): visibility: 10.11.2018 10:00:00 - 16.11.2018 10:00:00 (GMT)Valley, United Kingdom (3302): sunshine duration: 10.11.2018 10:00:00 - 16.11.2018 10:00:00 (GMT)Valley, United Kingdom (3302): precipitation: 10.11.2018 10:00:00 - 16.11.2018 10:00:00 (GMT)
Date & Time tt [°C] td [°C] tt -20cm [°C] tt -100cm [°C] ff [km/h] ff [kn] fx [km/h] fx [kn] dd ppp [hPa] vv [km] sd [min] rr [mm]
16.11.2018 10:00:00 13,0 10,6 - - 16 9 - - S 1022,9 10 0 0,0
16.11.2018 09:00:00 13,2 10,4 11,5 11,7 21 11 - - SSE 1022,2 10 0 0,0
16.11.2018 08:00:00 12,4 10,5 - - 11 6 - - ESE 1021,7 10 0 0,0
16.11.2018 07:00:00 12,4 11,0 - - 16 9 - - SSE 1021,1 10 0 0,0
16.11.2018 06:00:00 12,2 11,4 - - 21 11 - - SSE 1020,7 10 0 0,0
16.11.2018 05:00:00 11,8 11,0 - - 18 10 - - SSE 1020,1 8 0 0,0
16.11.2018 04:00:00 11,9 11,0 - - 22 12 - - SSE 1019,6 7 0 0,0
16.11.2018 03:00:00 11,9 10,9 - - 21 11 - - SE 1019,7 8 0 0,0
16.11.2018 02:00:00 12,2 11,2 - - 21 11 - - S 1019,7 8 0 0,0
16.11.2018 01:00:00 12,1 11,3 - - 22 12 - - SSE 1019,1 7 0 0,0
16.11.2018 00:00:00 12,2 11,2 - - 22 12 - - S 1019,0 8 - 0,0
15.11.2018 23:00:00 12,4 11,4 - - 22 12 - - S 1018,7 8 0 0,0
15.11.2018 22:00:00 12,4 11,3 - - 21 11 - - S 1018,4 8 0 0,0
15.11.2018 21:00:00 12,4 11,3 - - 26 14 - - S 1018,0 6 0 0,0
15.11.2018 20:00:00 12,5 11,3 - - 24 13 - - S 1017,4 6 0 0,0
15.11.2018 19:00:00 12,9 10,9 - - 29 16 - - S 1016,7 10 0 0,0
15.11.2018 18:00:00 13,2 10,5 - - 37 20 55 30 S 1016,1 25 0 0,0
15.11.2018 17:00:00 13,0 10,8 - - 31 17 - - SSW 1015,8 10 0 0,0
15.11.2018 16:00:00 14,0 9,6 - - 26 14 - - S 1014,5 10 12 0,0
15.11.2018 15:00:00 14,3 9,9 - - 31 17 46 25 SSE 1014,5 10 36 0,0
15.11.2018 14:00:00 14,3 9,5 - - 39 21 52 28 S 1014,6 10 6 0,0
15.11.2018 13:00:00 14,2 9,0 - - 41 22 55 30 S 1014,5 10 48 0,0
15.11.2018 12:00:00 14,2 9,2 - - 41 22 54 29 S 1014,5 10 48 0,0
15.11.2018 11:00:00 13,8 9,2 - - 31 17 - - SSE 1014,7 40 60 0,0
15.11.2018 10:00:00 13,0 8,9 - - 29 16 - - SSE 1015,1 10 60 0,0
15.11.2018 09:00:00 12,0 8,6 11,0 11,5 37 20 46 25 SSE 1015,3 40 42 0,0
15.11.2018 08:00:00 11,5 8,7 - - 35 19 48 26 SSE 1015,3 10 0 0,0
15.11.2018 07:00:00 11,3 8,7 - - 31 17 46 25 SSE 1015,2 10 0 0,0
15.11.2018 06:00:00 11,2 8,7 - - 37 20 52 28 SSE 1015,3 10 0 0,0
15.11.2018 05:00:00 11,3 8,7 - - 37 20 50 27 SSE 1015,2 12 0 0,0
15.11.2018 04:00:00 11,2 8,7 - - 37 20 50 27 SSE 1015,1 11 0 0,0
15.11.2018 03:00:00 11,3 8,8 - - 37 20 55 30 SSE 1015,3 10 0 0,0
15.11.2018 02:00:00 11,6 8,8 - - 46 25 61 33 S 1014,9 11 0 0,0
15.11.2018 01:00:00 11,6 8,8 - - 44 24 59 32 S 1015,1 12 0 0,0
15.11.2018 00:00:00 11,6 8,9 - - 44 24 57 31 S 1014,9 11 - 0,0
14.11.2018 23:00:00 11,7 9,1 - - 44 24 61 33 S 1015,2 11 0 0,0
14.11.2018 22:00:00 11,9 9,2 - - 48 26 63 34 S 1015,0 13 0 0,0
14.11.2018 21:00:00 11,8 9,0 - - 44 24 61 33 S 1014,9 13 0 0,0
14.11.2018 20:00:00 12,1 9,1 - - 46 25 61 33 S 1014,9 10 0 0,0
14.11.2018 19:00:00 12,4 9,4 - - 44 24 61 33 S 1014,4 10 0 0,0
14.11.2018 18:00:00 12,5 9,6 - - 44 24 57 31 S 1014,4 11 0 0,0
14.11.2018 17:00:00 12,7 10,0 - - 41 22 54 29 S 1014,5 10 0 0,0
14.11.2018 16:00:00 12,9 10,1 - - 41 22 54 29 S 1014,4 10 0 0,0
14.11.2018 15:00:00 12,9 10,1 - - 42 23 65 35 S 1014,4 10 0 0,0
14.11.2018 14:00:00 12,9 10,2 - - 48 26 65 35 S 1014,4 10 0 0,0
14.11.2018 13:00:00 12,9 10,5 - - 50 27 67 36 S 1014,6 10 0 0,0
14.11.2018 12:00:00 12,6 10,7 - - 44 24 57 31 S 1014,6 9 0 0,0
14.11.2018 11:00:00 12,3 11,4 - - 46 25 65 35 S 1014,7 6 0 0,2
14.11.2018 10:00:00 12,0 11,4 - - 50 27 65 35 S 1014,2 3,0 0 0,6
14.11.2018 09:00:00 11,9 11,5 11,0 11,7 48 26 65 35 S 1013,8 3,0 0 0,4
14.11.2018 08:00:00 12,1 11,5 - - 48 26 68 37 S 1013,5 3,0 0 0,4
14.11.2018 07:00:00 12,2 11,4 - - 54 29 74 40 S 1013,2 7 0 0,0
14.11.2018 06:00:00 12,1 11,5 - - 54 29 72 39 S 1012,8 2,5 0 0,0
14.11.2018 05:00:00 11,7 11,3 - - 55 30 67 36 S 1012,9 2,3 0 1,0
14.11.2018 04:00:00 11,5 10,9 - - 54 29 74 40 S 1012,9 3,2 0 0,4
14.11.2018 03:00:00 11,4 10,7 - - 54 29 70 38 S 1013,1 4,8 0 0,0
14.11.2018 02:00:00 11,3 10,6 - - 52 28 70 38 S 1013,7 3,3 0 0,4
14.11.2018 01:00:00 11,4 10,2 - - 52 28 70 38 S 1014,5 5 0 0,6
14.11.2018 00:00:00 12,2 10,0 - - 52 28 68 37 S 1015,0 7 - 0,0
13.11.2018 23:00:00 12,3 9,9 - - 42 23 55 30 S 1015,6 11 0 0,0
13.11.2018 22:00:00 12,3 9,9 - - 42 23 55 30 S 1016,1 11 0 0,0
13.11.2018 21:00:00 12,0 10,0 - - 41 22 52 28 S 1016,7 11 0 0,0
13.11.2018 20:00:00 12,0 9,9 - - 41 22 54 29 S 1016,9 10 0 0,0
13.11.2018 19:00:00 11,9 9,9 - - 41 22 50 27 S 1017,2 11 0 0,0
13.11.2018 18:00:00 11,5 9,3 - - 46 25 61 33 S 1017,4 9 0 0,0
13.11.2018 17:00:00 11,6 9,6 - - 41 22 57 31 S 1017,9 10 0 0,2
13.11.2018 16:00:00 11,7 9,3 - - 39 21 61 33 SSW 1017,7 10 0 0,2
13.11.2018 15:00:00 11,5 9,8 - - 39 21 52 28 SSW 1017,5 10 0 0,2
13.11.2018 14:00:00 11,9 9,0 - - 35 19 52 28 SSW 1017,5 10 30 0,0
13.11.2018 13:00:00 12,5 8,5 - - 34 18 - - SSW 1017,4 10 60 0,0
13.11.2018 12:00:00 12,3 7,8 - - 28 15 - - SW 1017,4 10 54 0,0
13.11.2018 11:00:00 11,0 7,8 - - 31 17 - - SW 1017,4 10 54 0,0
13.11.2018 10:00:00 11,0 7,8 - - 26 14 - - SW 1016,6 10 60 0,0
13.11.2018 09:00:00 10,4 7,8 10,7 11,7 31 17 - - WSW 1016,0 10 42 0,0
13.11.2018 08:00:00 9,8 7,3 - - 31 17 - - SW 1014,5 10 0 0,0
13.11.2018 07:00:00 10,1 6,9 - - 31 17 - - WSW 1013,5 10 0 0,0
13.11.2018 06:00:00 10,4 7,1 - - 28 15 - - WSW 1012,4 10 0 0,0
13.11.2018 05:00:00 10,1 7,5 - - 31 17 46 25 WSW 1011,1 17 0 0,0
13.11.2018 04:00:00 10,2 7,6 - - 35 19 50 27 WSW 1009,8 12 0 0,0
13.11.2018 03:00:00 10,1 7,3 - - 37 20 52 28 WSW 1008,8 10 0 0,0
13.11.2018 02:00:00 10,1 7,2 - - 39 21 54 29 WSW 1007,8 14 0 0,0
13.11.2018 01:00:00 10,3 7,1 - - 39 21 54 29 WSW 1006,7 16 0 0,0
13.11.2018 00:00:00 10,3 7,2 - - 41 22 54 29 WSW 1005,6 10 - 0,0
12.11.2018 23:00:00 10,3 7,1 - - 44 24 57 31 WSW 1004,6 11 0 0,0
12.11.2018 22:00:00 10,6 7,1 - - 41 22 57 31 SW 1003,6 13 0 0,0
12.11.2018 21:00:00 10,9 6,9 - - 42 23 57 31 SW 1002,9 10 0 0,0
12.11.2018 20:00:00 10,8 7,2 - - 41 22 61 33 SW 1002,5 15 0 0,4
12.11.2018 19:00:00 10,7 8,4 - - 46 25 61 33 SSW 1002,0 7 0 0,0
12.11.2018 18:00:00 11,1 8,7 - - 46 25 57 31 SSW 1001,9 10 0 0,6
12.11.2018 17:00:00 9,5 7,7 - - 34 18 57 31 SSW 1001,7 10 0 3,8
12.11.2018 16:00:00 9,0 7,8 - - 48 26 76 41 SSW 1001,3 10 6 2,4
12.11.2018 15:00:00 11,6 7,9 - - 46 25 67 36 SSW 1001,1 10 18 0,0
12.11.2018 14:00:00 12,0 8,5 - - 52 28 67 36 SSW 1000,9 10 30 1,6
12.11.2018 13:00:00 10,1 8,6 - - 48 26 87 47 S 1001,3 10 0 1,6
12.11.2018 12:00:00 10,3 7,8 - - 44 24 83 45 SW 1001,4 15 18 0,6
12.11.2018 11:00:00 11,1 9,2 - - 35 19 63 34 SSW 1001,1 10 6 0,2
12.11.2018 10:00:00 11,7 9,7 - - 41 22 61 33 S 1000,6 10 6 0,0
12.11.2018 09:00:00 10,9 8,9 10,7 11,7 42 23 68 37 S 1000,7 10 0 3,2
12.11.2018 08:00:00 10,8 9,1 - - 34 18 50 27 S 1000,2 4,0 0 0,2
12.11.2018 07:00:00 10,8 8,5 - - 39 21 63 34 S 1000,0 10 0 1,2
12.11.2018 06:00:00 10,8 9,2 - - 37 20 61 33 S 999,6 11 0 1,4
12.11.2018 05:00:00 11,4 9,4 - - 39 21 52 28 S 999,3 9 0 0,2
12.11.2018 04:00:00 11,5 9,4 - - 35 19 55 30 S 999,2 7 0 0,0
12.11.2018 03:00:00 11,5 9,2 - - 44 24 57 31 S 998,9 10 0 0,6
12.11.2018 02:00:00 11,5 9,1 - - 42 23 54 29 SSW 998,5 9 0 0,0
12.11.2018 01:00:00 10,8 9,1 - - 41 22 65 35 SSW 998,3 8 0 1,0
12.11.2018 00:00:00 11,7 9,1 - - 48 26 63 34 SSW 997,7 7 - 0,8
11.11.2018 23:00:00 11,9 9,4 - - 50 27 70 38 S 997,6 7 0 0,0
11.11.2018 22:00:00 11,7 8,9 - - 52 28 74 40 SSW 997,2 8 0 0,2
11.11.2018 21:00:00 11,7 9,1 - - 52 28 65 35 S 996,7 7 0 2,0
11.11.2018 20:00:00 9,4 7,6 - - 46 25 76 41 SW 996,6 5 0 1,6
11.11.2018 19:00:00 10,1 7,9 - - 42 23 68 37 SW 995,9 7 0 0,4
11.11.2018 18:00:00 10,1 8,0 - - 34 18 72 39 SSW 995,4 8 0 1,6
11.11.2018 17:00:00 11,5 8,8 - - 44 24 57 31 S 994,9 9 0 0,0
11.11.2018 16:00:00 11,6 7,9 - - 41 22 54 29 S 994,5 11 0 0,0
11.11.2018 15:00:00 11,7 8,5 - - 35 19 50 27 S 994,5 10 6 0,0
11.11.2018 14:00:00 12,1 7,6 - - 37 20 46 25 SSW 994,1 18 60 0,0
11.11.2018 13:00:00 12,0 7,1 - - 35 19 54 29 SW 993,5 19 60 0,0
11.11.2018 12:00:00 10,9 5,9 - - 39 21 52 28 SW 992,7 10 54 0,0
11.11.2018 11:00:00 10,9 6,9 - - 34 18 - - SW 992,1 23 54 0,0
11.11.2018 10:00:00 10,4 6,7 - - 35 19 - - SW 991,1 35 24 0,0
11.11.2018 09:00:00 9,7 8,5 10,5 11,7 26 14 - - SSW 989,9 10 0 0,4
11.11.2018 08:00:00 8,7 7,4 - - 31 17 50 27 SSE 989,1 9 0 1,6
11.11.2018 07:00:00 9,0 7,3 - - 34 18 52 28 SSE 988,6 8 0 1,2
11.11.2018 06:00:00 9,8 7,3 - - 37 20 48 26 SSE 988,0 10 0 0,0
11.11.2018 05:00:00 10,2 8,3 - - 29 16 - - SSE 988,0 15 0 0,0
11.11.2018 04:00:00 10,5 8,4 - - 26 14 - - S 988,1 17 0 0,0
11.11.2018 03:00:00 10,7 7,1 - - 35 19 48 26 SSW 988,3 14 0 0,0
11.11.2018 02:00:00 10,8 8,8 - - 37 20 48 26 S 988,4 15 0 1,2
11.11.2018 01:00:00 9,8 8,2 - - 26 14 - - SSE 988,4 12 0 0,0
11.11.2018 00:00:00 9,4 7,3 - - 28 15 - - SSE 988,8 19 - 0,0
10.11.2018 23:00:00 9,1 7,4 - - 29 16 - - S 989,2 20 0 0,4
10.11.2018 22:00:00 8,9 7,5 - - 18 10 - - SSE 989,3 13 0 3,0
10.11.2018 21:00:00 8,8 7,6 - - 29 16 - - SW 989,6 4,9 0 1,4
10.11.2018 20:00:00 10,5 7,8 - - 24 13 - - S 988,9 10 0 0,0
10.11.2018 19:00:00 10,1 6,8 - - 28 15 - - SSW 988,9 18 0 0,0
10.11.2018 18:00:00 9,9 7,1 - - 24 13 - - SSW 988,8 21 0 0,0
10.11.2018 17:00:00 10,0 7,5 - - 22 12 - - SW 988,2 26 0 0,0
10.11.2018 16:00:00 10,0 8,2 - - 18 10 - - SW 987,7 26 6 0,0
10.11.2018 15:00:00 10,3 8,9 - - 22 12 - - SW 987,1 14 6 0,0
10.11.2018 14:00:00 8,9 8,1 - - 13 7 - - SW 986,9 6 0 7,4
10.11.2018 13:00:00 10,6 8,7 - - 37 20 50 27 S 987,0 12 0 0,0
10.11.2018 12:00:00 10,4 8,2 - - 28 15 67 36 S 987,5 11 0 2,6
10.11.2018 11:00:00 11,3 9,2 - - 34 18 - - S 987,7 8 0 0,0
10.11.2018 10:00:00 9,7 7,4 - - 37 20 50 27 S 987,9 9 0 0,2

tt = temperature
td = dewpoint
tt -20cm = temperature -20cm
tt -100cm = temperature -100cm
ff = wind speed
fx = gusts
dd = wind direction
ppp = reduced air pressure
vv = visibility
sd = sunshine duration
rr = precipitation

Next stations